Location: Düngen
(52.0952°N, 10.0219°E)
Time: 15:17:39
(UTC+00:00)

Cosmos 1269 Rocket - Pass Details

Date: 11 March 2026
Orbit: 769 x 774 km, 74.1° (Epoch: 14 April)

Event Time Altitude Azimuth Distance (km) Brightness Sun altitude
Rises 18:49:13 0° 193° (SSW) 3,233 7.2 -14.8°
Reaches altitude 10° 18:51:36 10° 190° (S) 2,310 6.4 -15.2°
Maximum altitude 18:56:47 64° 110° (ESE) 852 3.9 -16.0°
Drops below altitude 10° 19:01:59 10° 30° (NNE) 2,324 6.4 -16.7°
Sets 19:04:23 0° 27° (NNE) 3,255 7.1 -17.1°
